Hourly Data Report for October 22, 2014

All times are specified in Local Standard Time (LST). Add 1 hour to adjust for Daylight Saving Time where and when it is observed.

PENTICTON A
BRITISH COLUMBIA

49°27'45.000" N
119°36'08.000" W
344.40 m
1126146
71889
YYF

Download Data

Hourly Data (October 2014)
Hourly Data Report for October 22, 2014
Temp Definition
°C
Dew Point Temp Definition
°C
Rel Hum Definition
%
Wind Dir Definition
10's deg

Wind Spd Definition
km/h
Visibility Definition
km
Stn Press Definition
kPa
Hmdx Definition


Wind Chill Definition


Weather Definition


TIME
00:00 Legend Double Dagger 14.1 5.3 55 19 34 24.1 96.85     LegendNANA
01:00 Legend Double Dagger 13.7 5.4 57 19 35 24.1 96.79     Mostly Cloudy
02:00 Legend Double Dagger 13.6 5.3 57 18 43 24.1 96.75     LegendNANA
03:00 Legend Double Dagger 13.1 5.3 59 17 34 24.1 96.70     LegendNANA
04:00 Legend Double Dagger 12.5 5.5 62 18 28 24.1 96.71     Rain
05:00 Legend Double Dagger 12.0 5.9 66 18 42 24.1 96.71     Rain
06:00 Legend Double Dagger 11.2 7.5 78 16 23 24.1 96.70     Rain
07:00 Legend Double Dagger 11.7 7.1 73 18 31 24.1 96.68     Rain Showers
08:00 Legend Double Dagger 11.4 7.5 77 16 27 24.1 96.76     Rain Showers
09:00 Legend Double Dagger 11.1 7.4 78 16 25 24.1 96.80     LegendNANA
10:00 Legend Double Dagger 11.9 6.6 70 18 44 24.1 96.79     Cloudy
11:00 Legend Double Dagger 12.2 6.5 68 17 34 24.1 96.77     LegendNANA
12:00 Legend Double Dagger 11.5 7.5 76 18 38 24.1 96.78     Rain Showers
13:00 Legend Double Dagger 11.4 7.7 78 17 25 24.1 96.74     Rain Showers
14:00 Legend Double Dagger 11.6 7.9 78 17 21 24.1 96.65     LegendNANA
15:00 Legend Double Dagger 11.6 7.7 77 16 23 24.1 96.61     Rain Showers
16:00 Legend Double Dagger 11.8 8.1 78 17 25 24.1 96.51     Cloudy
17:00 Legend Double Dagger 11.4 8.5 82 18 28 16.1 96.45     Rain,Fog
18:00 Legend Double Dagger 11.1 9.0 87 17 21 16.1 96.36     Rain
19:00 Legend Double Dagger 11.0 9.3 89 16 24 16.1 96.27     Rain
20:00 Legend Double Dagger 10.9 9.3 90 16 24 16.1 96.14     Rain
21:00 Legend Double Dagger 11.0 9.8 92 16 21 16.1 96.06     Rain
22:00 Legend Double Dagger 12.7 10.3 85 17 24 16.1 96.04     Rain
23:00 Legend Double Dagger 13.7 10.2 79 19 31 16.1 96.07     LegendNANA

Notes on Data Quality.

Legend

  • E = Estimated
  • M = Missing
  • NA = Not Available
  • ‡ = Partner data that is not subject to review by the National Climate Archives
Date modified: